STARLINK-30083, 56295

Orbit data source: Space-Track

STARLINK-30083, 56295 is a payload satellite owned by SpaceX/Seattle (US) in LEO that was launched on Wed, 19 Apr 2023 UTC via an FALCON 9 launch vehicle from the Air Force Eastern Test Range (AFETR). Payload-class satellites include a variety of spacecraft equipped with specific instruments for various scientific and technological missions. These include communications satellites like Starlink; space stations such as the ISS; scientific satellites like the Hubble; Earth observation satellites from companies like Planet Labs, Umbra, and HawkEye 360; GPS; miniature CubeSats for education and research; and military/defense satellites.

Loading next visibility...
Identifier
56295, 2023-056K
Orbit
LEO
Country
Flag of USUS
Related business
Manufacturer
SpaceX/Seattle
Mission
Operational Commercial Communications
Bus & Motor
STARLINK V2M, Unknown motor
Mass
730 kg wet, ~700 kg dry
Launch date (UTC)
2023-04-19 (3 years ago)
Launch vehicle
FALCON 9
Launch site
Air Force Eastern Test Range (AFETR)
Object type
Payload
Rocket body
Debris
Shape & HBR
Box + 2 Pan, 17.7 m
Radar Cross Section
33.884 m², Large (>1 m²)

Expand to show TLE details & history
Last TLE update: 1 day ago

TLE from 1 day ago
0 STARLINK-30083
1 56295U 23056K   25348.55359773  .00000336  00000-0  39940-4 0  9990
2 56295  43.0042 287.0269 0001111 275.0719  84.9997 15.02532146147514
Epoch: 2025-12-14T13:17Z
TLE epoch observation values (Epoch: 2025-12-14T13:17:10.843Z)
Latitude
-0°
Longitude
4.26686°
Altitude
558.803 km
Speed
7.584 km/s
True Right ascension
19h 08m 06s
True Declination
0° 00' 00"
Sunlit
Object was in daylight at epoch
Visualization orbit readout
Latitude
Unknown
Longitude
Unknown
Altitude
Unknown
Speed
Unknown
Apparent Right ascension
Unknown
Apparent Declination
Unknown
Sunlit
N/A
Visualization observer readout
Local Sidereal Time
15:12:32
Azimuth
Unknown
Elevation
Unknown
Doppler factor
Unknown
Orbital elements
Apogee altitude
561.786 km
Perigee altitude
560.244 km
Semi-major axis
6,939.152 km
Eccentricity
0.00011
Inclination
43.0042°
RAAN
287.0269°
Arg. of periapsis
275.0719°
True anomaly
85.01238°
Mean anomaly
84.9997°
Eccentric anomaly
85.00604°
Mean motion
3.75477 °/min
Orbital period
95.88 mins
BSTAR
0.00003994
Loading maneuver chart data...
Computing Atmospheric mass density...
Loading historical data...
Loading historical data...
Loading historical data...
Loading historical data...
Loading historical data...
Loading historical data...
Loading historical data...

Documentation

Showing up to 5 results
|